K1IC-1 Weather Reports


time (UTC)temp
F
wind
direction
speed
knots
gust
knots
rain 1hr
in
rain 24hr
in
rain mn
in
humidity
%
barometer
mb
20260506143026 61 148 1.7 3.5 0.00 0.00 0.00 83 1009.8
20260506142025 62 157 2.6 4.3 0.00 0.00 0.00 81 1010.0
20260506141026 62 195 0.9 1.7 0.00 0.00 0.00 81 1009.8
20260506140020 62 169 2.6 4.3 0.00 0.00 0.00 81 1009.6
20260506135026 61 176 1.7 4.3 0.00 0.00 0.00 82 1010.0
20260506134101 60 158 1.7 2.6 0.00 0.00 0.00 84 1010.0
20260506133026 60 146 1.7 3.5 0.00 0.00 0.00 84 1009.8
20260506132020 59 169 2.6 4.3 0.00 0.00 0.00 86 1009.6
20260506131020 59 142 2.6 4.3 0.00 0.00 0.00 86 1009.6
20260506130026 60 151 2.6 3.5 0.00 0.00 0.00 84 1009.7
20260506125026 61 178 0.9 1.7 0.00 0.00 0.00 83 1009.7
20260506124047 62 174 1.7 4.3 0.00 0.00 0.00 82 1009.8
20260506123027 61 164 1.7 4.3 0.00 0.00 0.00 83 1010.0
20260506122027 60 197 0.9 1.7 0.00 0.00 0.00 85 1010.2
20260506121027 60 189 1.7 3.5 0.00 0.00 0.00 86 1010.2
20260506120027 59 184 0.9 2.6 0.00 0.00 0.00 86 1010.2
20260506115028 59 186 1.7 3.5 0.00 0.00 0.00 87 1010.1
20260506114028 59 180 0.9 2.6 0.00 0.00 0.00 87 1010.0
20260506113048 58 167 0.9 1.7 0.00 0.00 0.00 88 1010.1
20260506112029 58 168 0.9 2.6 0.00 0.00 0.00 90 1010.2
20260506111028 57 230 0.9 0.9 0.00 0.00 0.00 91 1010.1
20260506110048 57 185 0.9 2.6 0.00 0.00 0.00 91 1010.1
20260506105048 56 183 0.9 1.7 0.00 0.00 0.00 92 1010.2
20260506104029 56 181 0.9 1.7 0.00 0.00 0.00 93 1010.0
20260506103029 55 181 1.7 2.6 0.00 0.00 0.00 94 1010.0
20260506102049 55 170 0.9 1.7 0.00 0.00 0.00 94 1010.1
20260506101029 54 183 0.9 1.7 0.00 0.00 0.00 95 1010.1
20260506100029 54 178 0.9 1.7 0.00 0.00 0.00 95 1010.0
20260506095044 53 176 0.9 1.7 0.00 0.00 0.00 95 1010.0
20260506094030 53 177 0.9 0.9 0.00 0.00 0.00 95 1010.1
20260506093029 53 192 0.0 0.9 0.00 0.00 0.00 95 1010.0
20260506092029 53 329 0.0 0.0 0.00 0.00 0.00 95 1010.1
20260506091031 53 143 0.0 0.9 0.00 0.00 0.00 95 1010.2
20260506090030 53 165 0.9 1.7 0.00 0.00 0.00 95 1010.1
20260506085031 53 192 0.9 0.9 0.00 0.00 0.00 95 1010.2
20260506084016 53 138 0.0 0.9 0.00 0.00 0.00 94 1010.3
20260506083016 53 0.0 0.0 0.00 0.00 0.00 94 1010.4
20260506082016 53 170 0.0 0.9 0.00 0.00 0.00 93 1010.5
20260506081016 54 185 0.9 1.7 0.00 0.00 0.00 93 1010.4
20260506073017 55 174 0.9 2.6 0.00 0.00 0.00 91 1010.6
20260506072017 55 183 0.9 1.7 0.00 0.00 0.00 91 1010.6
20260506071047 55 179 0.9 1.7 0.00 0.00 0.00 91 1010.6
20260506062019 55 172 0.9 1.7 0.00 0.00 0.00 89 1010.5
20260506061018 56 171 1.7 3.5 0.00 0.00 0.00 88 1010.5
20260506051017 58 196 0.9 1.7 0.00 0.00 0.00 84 1010.8
20260506045057 59 208 0.9 1.7 0.00 0.00 0.00 83 1010.9
20260506044017 59 219 0.9 3.5 0.00 0.00 0.00 83 1010.9
20260506043037 59 271 0.9 1.7 0.00 0.00 0.00 82 1010.9
20260506042038 59 207 0.9 2.6 0.00 0.00 0.00 82 1010.9
20260506041018 59 226 0.9 1.7 0.00 0.00 0.00 82 1010.9
20260506040018 59 189 0.9 2.6 0.00 0.00 0.00 81 1010.9
20260506035018 60 208 0.9 1.7 0.00 0.00 0.00 81 1010.8
20260506034019 60 181 0.0 0.9 0.00 0.00 0.00 80 1010.8
20260506033018 60 215 0.9 1.7 0.00 0.00 0.00 79 1010.8
20260506032021 60 250 0.0 0.9 0.00 0.00 0.00 79 1010.7
20260506031016 60 277 0.0 1.7 0.00 0.00 0.00 78 1010.8
20260506030015 60 224 0.9 2.6 0.00 0.00 0.00 78 1010.9
20260506025017 60 229 0.0 1.7 0.00 0.00 0.00 77 1010.9
20260506024016 61 282 0.9 2.6 0.00 0.00 0.00 76 1010.9
20260506023037 61 214 0.9 3.5 0.00 0.00 0.00 76 1010.9
20260506022017 61 231 1.7 3.5 0.00 0.00 0.00 75 1010.8
20260506021037 62 235 1.7 4.3 0.00 0.00 0.00 74 1010.6
20260506020017 62 232 1.7 5.2 0.00 0.00 0.00 73 1010.5
20260506015017 61 206 2.6 7.8 0.00 0.00 0.00 74 1010.5
20260506014017 62 233 1.7 5.2 0.00 0.00 0.00 73 1010.4
20260506013018 62 177 0.9 3.5 0.00 0.00 0.00 72 1010.2
20260506012018 62 227 1.7 5.2 0.00 0.00 0.00 72 1010.1
20260506011017 63 295 0.9 3.5 0.00 0.00 0.00 72 1009.9
20260506010018 62 264 1.7 7.0 0.00 0.00 0.00 72 1009.8
20260506005018 62 251 2.6 6.1 0.00 0.00 0.00 72 1009.6
20260506004015 63 252 1.7 3.5 0.00 0.00 0.00 71 1009.4
20260506003016 63 252 1.7 6.1 0.00 0.00 0.00 71 1009.4
20260506002016 63 261 1.7 6.1 0.00 0.00 0.00 71 1009.3
20260506001018 63 223 2.6 6.1 0.00 0.00 0.00 70 1009.2
20260506000016 62 285 1.7 4.3 0.00 0.00 0.00 70 1009.1
20260505235016 63 315 1.7 5.2 0.00 0.00 0.00 70 1008.8
20260505234016 63 292 1.7 3.5 0.00 0.00 0.00 70 1008.8
20260505233036 63 317 0.9 3.5 0.00 0.00 0.00 69 1008.6
20260505232017 63 242 1.7 4.3 0.00 0.00 0.00 68 1008.3
20260505231036 64 220 1.7 5.2 0.00 0.00 0.00 67 1008.3
20260505230017 65 181 1.7 4.3 0.00 0.00 0.00 67 1008.1
20260505225017 65 227 1.7 4.3 0.00 0.00 0.00 66 1008.0
20260505224017 66 170 1.7 6.1 0.00 0.00 0.00 66 1008.2
20260505223018 67 252 1.7 5.2 0.00 0.00 0.00 65 1008.3
20260505222018 68 241 1.7 5.2 0.00 0.00 0.00 65 1008.2
20260505221018 68 234 1.7 6.1 0.00 0.00 0.00 64 1008.2
20260505220018 68 135 1.7 5.2 0.00 0.00 0.00 64 1008.2
20260505215018 69 268 2.6 5.2 0.00 0.00 0.00 64 1008.2
20260505214018 69 250 1.7 4.3 0.00 0.00 0.00 63 1008.2
20260505213015 69 260 2.6 6.1 0.00 0.00 0.00 64 1008.2
20260505212016 70 216 1.7 4.3 0.00 0.00 0.00 63 1008.1
20260505211016 69 191 2.6 6.1 0.00 0.00 0.00 63 1008.2
20260505210016 69 186 1.7 4.3 0.00 0.00 0.00 64 1008.3
20260505205016 69 201 2.6 7.8 0.00 0.00 0.00 64 1008.1
20260505204016 69 213 1.7 4.3 0.00 0.00 0.00 64 1008.1
20260505203017 69 184 1.7 4.3 0.00 0.00 0.00 64 1008.2
20260505202017 69 181 2.6 5.2 0.00 0.00 0.00 64 1008.2
20260505201017 69 203 2.6 5.2 0.00 0.00 0.00 64 1008.3
20260505200017 68 158 2.6 8.7 0.00 0.00 0.00 65 1008.3
20260505195017 67 172 3.5 8.7 0.00 0.00 0.00 66 1008.4
20260505194017 67 177 3.5 7.8 0.00 0.00 0.00 68 1008.5
20260505193038 68 168 3.5 6.1 0.00 0.00 0.00 67 1008.6
20260505192018 69 160 3.5 7.8 0.00 0.00 0.00 65 1008.8
20260505191019 69 163 4.3 7.0 0.00 0.00 0.00 65 1009.0
20260505190018 68 179 2.6 6.1 0.00 0.00 0.00 66 1009.2
20260505185038 67 159 4.3 7.8 0.00 0.00 0.00 67 1009.2
20260505184018 67 165 3.5 9.6 0.00 0.00 0.00 69 1009.3
20260505183015 66 180 2.6 6.1 0.00 0.00 0.00 71 1009.2
20260505182016 66 166 4.3 8.7 0.00 0.00 0.00 71 1009.3
20260505181036 67 161 5.2 10.4 0.00 0.00 0.00 70 1009.3
20260505180017 68 181 3.5 7.0 0.00 0.00 0.00 68 1009.4
20260505175017 68 174 3.5 7.0 0.00 0.00 0.00 68 1009.4
20260505174016 68 182 2.6 7.0 0.00 0.00 0.00 68 1009.4
20260505173017 69 178 3.5 7.0 0.00 0.00 0.00 67 1009.5
20260505172017 71 175 3.5 7.0 0.00 0.00 0.00 64 1009.5
20260505171017 72 161 3.5 6.1 0.00 0.00 0.00 62 1009.6
20260505170017 72 174 1.7 5.2 0.00 0.00 0.00 60 1009.6
20260505165017 71 146 3.5 6.1 0.00 0.00 0.00 63 1009.7
20260505164017 70 145 3.5 6.1 0.00 0.00 0.00 64 1009.7
20260505163036 69 157 3.5 6.1 0.00 0.00 0.00 65 1009.8
20260505162017 68 150 2.6 6.1 0.00 0.00 0.00 67 1010.1
20260505161016 67 154 3.5 5.2 0.00 0.00 0.00 67 1010.2
20260505153035 72 163 1.7 5.2 0.00 0.00 0.00 61 1010.5
20260505152016 71 207 1.7 3.5 0.00 0.00 0.00 62 1010.7
20260505151016 71 164 1.7 3.5 0.00 0.00 0.00 62 1010.8